Weather History for Eveleth, MN

Change the Weather History Date:

Sunday, July 21, 2013

  Actual Average Record
Temperature  
Mean Temperature 56 °F -  
Max Temperature 71 °F 76 °F 91 °F (2004)
Min Temperature 42 °F 52 °F 41 °F (2007)
Degree Days  
Heating Degree Days 8    
Growing Degree Days 6 (Base 50)    
Moisture  
Dew Point 48 °F    
Average Humidity 69    
Maximum Humidity 93    
Minimum Humidity 49    
Precipitation  
Precipitation 0.00 in - - ()
Sea Level Pressure  
Sea Level Pressure 29.96 in    
Wind  
Wind Speed 5 mph (ESE)    
Max Wind Speed 10 mph    
Max Gust Speed 16 mph    
Visibility 10 miles    
Events      
Averages and records for this station are not official NWS values.
T = Trace of Precipitation, MM = Missing Value Source: NWS Daily Summary

Daily Weather History Graph

Daily Weather History Graph

Search for Another Location

Airport:

Trip Planner

Search our weather history database for the weather conditions in past years. The results will help you decide how hot, cold, wet, or windy it might be!

Date:

Astronomy

Jul. 21, 2013 Rise Set
Actual Time 5:35 AM CDT 8:56 PM CDT
Civil Twilight 4:57 AM CDT 9:34 PM CDT
Nautical Twilight 4:07 AM CDT 10:23 PM CDT
Astronomical Twilight 3:03 AM CDT 11:27 PM CDT
Moon 7:51 PM CDT (7/21) 4:23 AM CDT (7/21)
Length of Visible Light 16h 36m
Length of Day
15h 21m
Waxing Gibbous, 98% of the Moon is Illuminated
Jul 21
Waxing Gibbous
Jul 22
Full
Jul 29
Last Quarter
Aug 6
New
Aug 14
First Quarter

Hourly Weather History & Observations

Time (CDT) Temp. Windchill Dew Point Humidity Pressure Visibility Wind Dir Wind Speed Gust Speed Precip Events Conditions
12:08 AM 50.0 °F - 46.4 °F 87% 30.03 in 10.0 mi NE 4.6 mph - N/A   Clear
12:28 AM 50.0 °F - 46.4 °F 87% 30.03 in 10.0 mi NE 4.6 mph - N/A   Clear
12:48 AM 48.2 °F - 44.6 °F 87% 30.03 in 10.0 mi NE 4.6 mph - N/A   Clear
1:08 AM 46.4 °F 43.5 °F 42.8 °F 87% 30.02 in 10.0 mi NE 5.8 mph - N/A   Clear
1:28 AM 46.4 °F 44.3 °F 44.6 °F 93% 30.02 in 10.0 mi NE 4.6 mph - N/A   Clear
1:48 AM 46.4 °F 45.2 °F 44.6 °F 93% 30.03 in 10.0 mi ENE 3.5 mph - N/A   Clear
2:08 AM 46.4 °F - 44.6 °F 93% 30.03 in 10.0 mi Calm Calm - N/A   Clear
2:28 AM 46.4 °F 45.2 °F 44.6 °F 93% 30.03 in 10.0 mi ENE 3.5 mph - N/A   Scattered Clouds
2:48 AM 46.4 °F - 44.6 °F 93% 30.03 in 10.0 mi Calm Calm - N/A   Scattered Clouds
3:08 AM 44.6 °F 43.1 °F 42.8 °F 93% 30.03 in 10.0 mi NE 3.5 mph - N/A   Clear
3:28 AM 44.6 °F 43.1 °F 42.8 °F 93% 30.03 in 10.0 mi NE 3.5 mph - N/A   Scattered Clouds
3:48 AM 44.6 °F 42.2 °F 42.8 °F 93% 30.02 in 10.0 mi NE 4.6 mph - N/A   Clear
4:08 AM 44.6 °F 43.1 °F 42.8 °F 93% 30.02 in 10.0 mi ENE 3.5 mph - N/A   Clear
4:28 AM 44.6 °F 43.1 °F 42.8 °F 93% 30.01 in 10.0 mi NE 3.5 mph - N/A   Clear
4:48 AM 44.6 °F 43.1 °F 42.8 °F 93% 30.01 in 10.0 mi ENE 3.5 mph - N/A   Clear
5:08 AM 44.6 °F - 42.8 °F 93% 30.02 in 10.0 mi Calm Calm - N/A   Clear
5:28 AM 42.8 °F - 41.0 °F 93% 30.02 in 10.0 mi Calm Calm - N/A   Scattered Clouds
5:48 AM 44.6 °F - 42.8 °F 93% 30.01 in 10.0 mi Calm Calm - N/A   Scattered Clouds
6:08 AM 44.6 °F - 42.8 °F 93% 30.01 in 10.0 mi Calm Calm - N/A   Clear
6:28 AM 46.4 °F - 44.6 °F 93% 30.01 in 10.0 mi Calm Calm - N/A   Clear
6:48 AM 50.0 °F - 46.4 °F 87% 30.02 in 10.0 mi Calm Calm - N/A   Clear
7:08 AM 51.8 °F - 46.4 °F 82% 30.01 in 10.0 mi NE 3.5 mph - N/A   Scattered Clouds
7:29 AM 51.8 °F - 46.4 °F 82% 30.01 in 10.0 mi East 3.5 mph - N/A   Scattered Clouds
7:48 AM 53.6 °F - 46.4 °F 77% 30.02 in 10.0 mi East 3.5 mph - N/A   Scattered Clouds
8:09 AM 51.8 °F - 46.4 °F 82% 30.02 in 10.0 mi Calm Calm - N/A   Scattered Clouds
8:28 AM 57.2 °F - 50.0 °F 77% 30.02 in 10.0 mi East 4.6 mph - N/A   Scattered Clouds
8:48 AM 57.2 °F - 46.4 °F 67% 30.02 in 10.0 mi ESE 3.5 mph - N/A   Mostly Cloudy
9:09 AM 57.2 °F - 46.4 °F 67% 30.02 in 10.0 mi Calm Calm - N/A   Overcast
9:28 AM 59.0 °F - 46.4 °F 63% 30.01 in 10.0 mi Calm Calm - N/A   Overcast
9:48 AM 59.0 °F - 48.2 °F 67% 30.02 in 10.0 mi SE 4.6 mph - N/A   Overcast
10:09 AM 62.6 °F - 46.4 °F 55% 30.01 in 10.0 mi SE 9.2 mph - N/A   Scattered Clouds
10:28 AM 62.6 °F - 46.4 °F 55% 30.00 in 10.0 mi ESE 9.2 mph - N/A   Clear
10:48 AM 62.6 °F - 46.4 °F 55% 30.00 in 10.0 mi ESE 8.1 mph - N/A   Clear
11:09 AM 64.4 °F - 46.4 °F 52% 29.99 in 10.0 mi ESE 5.8 mph - N/A   Clear
11:28 AM 64.4 °F - 46.4 °F 52% 29.99 in 10.0 mi SSE 6.9 mph - N/A   Clear
11:48 AM 66.2 °F - 46.4 °F 49% 29.99 in 10.0 mi SSE 5.8 mph - N/A   Clear
12:09 PM 68.0 °F - 50.0 °F 52% 29.99 in 10.0 mi South 6.9 mph - N/A   Mostly Cloudy
12:28 PM 68.0 °F - 48.2 °F 49% 29.98 in 10.0 mi SE 9.2 mph - N/A   Mostly Cloudy
12:48 PM 68.0 °F - 48.2 °F 49% 29.98 in 10.0 mi South 9.2 mph - N/A   Scattered Clouds
1:09 PM 69.8 °F - 50.0 °F 49% 29.97 in 10.0 mi SSE 5.8 mph - N/A   Clear
1:28 PM 71.6 °F - 51.8 °F 50% 29.96 in 10.0 mi SE 5.8 mph - N/A   Clear
1:48 PM 69.8 °F - 51.8 °F 53% 29.95 in 10.0 mi SSE 8.1 mph - N/A   Scattered Clouds
2:09 PM 71.6 °F - 51.8 °F 50% 29.94 in 10.0 mi SSE 6.9 mph - N/A   Scattered Clouds
2:28 PM 71.6 °F - 51.8 °F 50% 29.94 in 10.0 mi SSE 4.6 mph - N/A   Scattered Clouds
2:48 PM 71.6 °F - 51.8 °F 50% 29.93 in 10.0 mi SSE 8.1 mph 16.1 mph N/A   Scattered Clouds
3:09 PM 71.6 °F - 51.8 °F 50% 29.93 in 10.0 mi South 6.9 mph - N/A   Clear
3:28 PM 71.6 °F - 51.8 °F 50% 29.92 in 10.0 mi SE 5.8 mph - N/A   Scattered Clouds
3:48 PM 71.6 °F - 51.8 °F 50% 29.92 in 10.0 mi SW 4.6 mph - N/A   Scattered Clouds
4:09 PM 69.8 °F - 51.8 °F 53% 29.92 in 10.0 mi SE 3.5 mph - N/A   Scattered Clouds
4:28 PM 69.8 °F - 51.8 °F 53% 29.91 in 10.0 mi SSE 4.6 mph - N/A   Scattered Clouds
4:48 PM 71.6 °F - 51.8 °F 50% 29.91 in 10.0 mi SE 10.4 mph - N/A   Clear
5:08 PM 71.6 °F - 53.6 °F 53% 29.90 in 10.0 mi SE 10.4 mph - N/A   Scattered Clouds
5:28 PM 71.6 °F - 55.4 °F 57% 29.89 in 10.0 mi SSE 8.1 mph - N/A   Mostly Cloudy
5:49 PM 71.6 °F - 55.4 °F 57% 29.88 in 10.0 mi SSE 9.2 mph - N/A   Scattered Clouds
6:08 PM 71.6 °F - 55.4 °F 57% 29.88 in 10.0 mi SSE 10.4 mph - N/A   Clear
6:28 PM 71.6 °F - 55.4 °F 57% 29.88 in 10.0 mi SSE 6.9 mph - N/A   Clear
6:49 PM 71.6 °F - 55.4 °F 57% 29.87 in 10.0 mi SE 9.2 mph - N/A   Clear
7:08 PM 69.8 °F - 53.6 °F 56% 29.87 in 10.0 mi SE 9.2 mph - N/A   Clear
7:28 PM 68.0 °F - 51.8 °F 56% 29.86 in 10.0 mi SE 8.1 mph - N/A   Clear
7:48 PM 64.4 °F - 51.8 °F 64% 29.86 in 10.0 mi SE 8.1 mph - N/A   Clear
8:08 PM 64.4 °F - 51.8 °F 64% 29.86 in 10.0 mi SE 6.9 mph - N/A   Clear
8:29 PM 62.6 °F - 50.0 °F 63% 29.86 in 10.0 mi SE 6.9 mph - N/A   Clear
8:48 PM 60.8 °F - 50.0 °F 68% 29.87 in 10.0 mi SE 5.8 mph - N/A   Clear
9:08 PM 59.0 °F - 46.4 °F 63% 29.87 in 10.0 mi SE 5.8 mph - N/A   Clear
9:29 PM 59.0 °F - 46.4 °F 63% 29.88 in 10.0 mi ESE 3.5 mph - N/A   Scattered Clouds
9:48 PM 57.2 °F - 44.6 °F 63% 29.87 in 10.0 mi ESE 3.5 mph - N/A   Scattered Clouds
10:08 PM 57.2 °F - 42.8 °F 59% 29.87 in 10.0 mi ESE 8.1 mph - N/A   Clear
10:28 PM 57.2 °F - 44.6 °F 63% 29.87 in 10.0 mi ESE 4.6 mph - N/A   Clear
10:48 PM 55.4 °F - 42.8 °F 63% 29.87 in 10.0 mi SE 3.5 mph - N/A   Clear
11:08 PM 51.8 °F - 42.8 °F 71% 29.86 in 10.0 mi SE 5.8 mph - N/A   Scattered Clouds
11:28 PM 53.6 °F - 42.8 °F 67% 29.86 in 10.0 mi SE 4.6 mph - N/A   Clear
11:48 PM 51.8 °F - 41.0 °F 67% 29.85 in 10.0 mi ESE 4.6 mph - N/A   Clear